Weather History for Opa Locka, FL

Change the Weather History Date:

Friday, May 16, 2014

  Actual Average Record
Temperature  
Mean Temperature 74 °F -  
Max Temperature 80 °F 87 °F 94 °F (1985)
Min Temperature 69 °F 71 °F 57 °F (1951)
Cooling Degree Days 9    
Growing Degree Days 24 (Base 50)    
Moisture  
Dew Point 68 °F    
Average Humidity 80    
Maximum Humidity 97    
Minimum Humidity 39    
Precipitation  
Precipitation 0.01 in - - ()
Sea Level Pressure  
Sea Level Pressure 30.01 in    
Wind  
Wind Speed 9 mph (NNW)    
Max Wind Speed 18 mph    
Max Gust Speed 21 mph    
Visibility 10 miles    
Events Rain    
Averages and records for this station are not official NWS values.
T = Trace of Precipitation, MM = Missing Value Source: NWS Daily Summary

Daily Weather History Graph

Daily Weather History Graph

Search for Another Location

Airport:

Trip Planner

Search our weather history database for the weather conditions in past years. The results will help you decide how hot, cold, wet, or windy it might be!

Date:

Astronomy

May. 16, 2014 Rise Set
Actual Time 6:34 AM EDT 8:00 PM EDT
Civil Twilight 6:09 AM EDT 8:25 PM EDT
Nautical Twilight 5:39 AM EDT 8:55 PM EDT
Astronomical Twilight 5:08 AM EDT 9:26 PM EDT
Moon 10:06 PM EDT (5/16) 8:15 AM EDT (5/16)
Length of Visible Light 14h 15m
Length of Day
13h 25m
Waning Gibbous, 95% of the Moon is Illuminated
May 16
Waning Gibbous
May 21
Last Quarter
May 28
New
Jun 5
First Quarter
Jun 13
Full

Hourly Weather History & Observations

Time (EDT) Temp. Dew Point Humidity Pressure Visibility Wind Dir Wind Speed Gust Speed Precip Events Conditions
12:53 AM 73.9 °F 73.0 °F 97% 30.00 in 10.0 mi South 4.6 mph - 0.00 in Rain Rain
1:53 AM 73.9 °F 73.0 °F 97% 29.97 in 10.0 mi SSW 5.8 mph - 0.00 in Rain Rain
2:53 AM 75.0 °F 73.9 °F 96% 29.96 in 10.0 mi SW 4.6 mph - 0.00 in Rain Rain
3:32 AM 75.0 °F 73.9 °F 96% 29.96 in 10.0 mi West 5.8 mph - 0.00 in Rain Rain
3:53 AM 75.2 °F 73.4 °F 94% 29.96 in 10.0 mi WSW 4.6 mph - N/A Rain Rain
4:01 AM 75.0 °F 73.9 °F 96% 29.96 in 10.0 mi WSW 6.9 mph - 0.00 in Rain Rain
4:42 AM 75.0 °F 73.9 °F 96% 29.96 in 10.0 mi WSW 5.8 mph - 0.01 in Rain Rain
4:53 AM 75.0 °F 73.9 °F 96% 29.96 in 10.0 mi West 6.9 mph - 0.01 in Rain Rain
5:53 AM 73.9 °F 72.0 °F 93% 29.97 in 10.0 mi NNW 11.5 mph - 0.00 in Rain Rain
6:04 AM 73.0 °F 72.0 °F 96% 29.97 in 10.0 mi NNW 9.2 mph - 0.00 in Rain Rain
6:22 AM 73.0 °F 71.1 °F 93% 29.98 in 10.0 mi NNW 12.7 mph - 0.00 in Rain Rain
6:53 AM 73.0 °F 71.1 °F 93% 29.99 in 10.0 mi NNW 6.9 mph - 0.00 in Rain Rain
7:09 AM 73.0 °F 71.1 °F 93% 29.99 in 10.0 mi NW 9.2 mph - 0.00 in Rain Rain
7:36 AM 72.0 °F 70.0 °F 93% 30.00 in 10.0 mi NW 10.4 mph - 0.00 in Rain Rain
7:48 AM 71.6 °F 69.8 °F 94% 30.01 in 10.0 mi NW 10.4 mph - 0.00 in Rain Rain
7:53 AM 72.0 °F 70.0 °F 93% 30.01 in 10.0 mi NW 10.4 mph - 0.00 in Rain Rain
8:00 AM 73.0 °F 70.0 °F 90% 30.01 in 10.0 mi NW 10.4 mph - 0.00 in Rain Rain
8:08 AM 73.0 °F 70.0 °F 90% 30.01 in 10.0 mi NNW 9.2 mph - 0.00 in Rain Rain
8:45 AM 72.0 °F 70.0 °F 93% 30.01 in 2.0 mi NNW 9.2 mph - 0.00 in Rain Rain
8:53 AM 73.0 °F 71.1 °F 93% 30.02 in 2.0 mi NNW 6.9 mph - 0.00 in Rain Rain
9:00 AM 73.0 °F 71.1 °F 93% 30.01 in 10.0 mi NNW 6.9 mph - 0.00 in Rain Rain
9:11 AM 73.9 °F 71.1 °F 91% 30.02 in 10.0 mi NNW 6.9 mph - 0.00 in Rain Rain
9:53 AM 75.0 °F 70.0 °F 84% 30.02 in 10.0 mi NNW 10.4 mph - 0.00 in Rain Rain
10:36 AM 77.0 °F 70.0 °F 79% 30.02 in 10.0 mi North 11.5 mph - 0.00 in Rain Rain
10:53 AM 77.0 °F 69.1 °F 76% 30.03 in 10.0 mi North 11.5 mph - 0.00 in Rain Rain
11:02 AM 77.0 °F 69.1 °F 76% 30.03 in 10.0 mi North 16.1 mph - 0.00 in Rain Rain
11:30 AM 78.1 °F 69.1 °F 74% 30.03 in 10.0 mi North 12.7 mph - 0.00 in Rain Rain
11:53 AM 78.1 °F 68.0 °F 71% 30.04 in 10.0 mi NNW 15.0 mph - 0.00 in Rain Rain
12:04 PM 77.0 °F 68.0 °F 74% 30.03 in 10.0 mi NNW 12.7 mph - 0.00 in Rain Rain
12:35 PM 79.0 °F 68.0 °F 69% 30.03 in 10.0 mi NNW 13.8 mph 19.6 mph 0.00 in Rain Rain
12:53 PM 78.1 °F 68.0 °F 71% 30.04 in 10.0 mi North 11.5 mph - 0.00 in Rain Rain
1:03 PM 75.9 °F 68.0 °F 76% 30.03 in 10.0 mi NNW 17.3 mph 20.7 mph 0.00 in Rain Rain
1:40 PM 77.0 °F 66.9 °F 71% 30.04 in 10.0 mi NNW 18.4 mph - 0.00 in Rain Rain
1:53 PM 78.1 °F 68.0 °F 71% 30.04 in 10.0 mi NNW 15.0 mph - 0.00 in Rain Rain
2:23 PM 78.1 °F 68.0 °F 71% 30.03 in 10.0 mi North 13.8 mph - 0.00 in Rain Rain
2:53 PM 77.0 °F 66.9 °F 71% 30.03 in 10.0 mi NNW 13.8 mph - 0.00 in Rain Rain
3:53 PM 78.8 °F 66.2 °F 65% 30.01 in 10.0 mi North 13.8 mph - N/A   Mostly Cloudy
4:53 PM 78.1 °F 66.0 °F 66% 30.01 in 10.0 mi North 12.7 mph - N/A   Clear
5:53 PM 75.9 °F 64.0 °F 67% 30.01 in 10.0 mi North 12.7 mph - N/A   Clear
6:53 PM 75.9 °F 61.0 °F 60% 30.03 in 10.0 mi North 13.8 mph - N/A   Clear
7:53 PM 73.0 °F 46.9 °F 39% 30.04 in 10.0 mi North 10.4 mph - N/A   Clear
8:53 PM 71.1 °F 48.0 °F 44% 30.06 in 10.0 mi North 9.2 mph - N/A   Unknown
9:53 PM 71.1 °F 55.0 °F 57% 30.08 in 10.0 mi North 8.1 mph - N/A   Clear
10:53 PM 69.8 °F 53.6 °F 56% 30.08 in 10.0 mi North 8.1 mph - N/A   Clear
11:53 PM 69.1 °F 53.1 °F 57% 30.09 in 10.0 mi North 6.9 mph - N/A   Clear